EZY24YG EGNM-EGAA

Flight info

Callsign EZY24YG
Flight time 0h 48m
Altitude 22000
Route NELSA DCT CROFT Y70 KOLID L70 GUNTU Z196 DIGMA M146 IPSET P6 BELZU
Aircraft A20N/M-SDE2E3FGHIRWXY/LB1

Departure

Time 2026-05-05 17:30
Airport Leeds Bradford Airport (EGNM)

Arrival

Time 2026-05-05 18:18
Airport Belfast International Airport (EGAA)
Time Latitude Longitude Altitude Speed Heading
2026-05-05 17:03 53.86882 -1.65763 667 ft 0 kts
2026-05-05 17:13 53.86883 -1.65763 667 ft 0 kts
2026-05-05 17:18 53.86881 -1.65762 667 ft 1 kts
2026-05-05 17:18 53.86867 -1.65764 668 ft 2 kts
2026-05-05 17:18 53.86852 -1.65764 668 ft 2 kts
2026-05-05 17:19 53.86837 -1.65765 669 ft 2 kts
2026-05-05 17:19 53.86822 -1.65765 669 ft 2 kts
2026-05-05 17:19 53.86813 -1.65764 669 ft 0 kts 12°
2026-05-05 17:19 53.86809 -1.65768 670 ft 0 kts 71°
2026-05-05 17:20 53.86810 -1.65785 670 ft 2 kts 102°
2026-05-05 17:20 53.86811 -1.65810 670 ft 2 kts 89°
2026-05-05 17:20 53.86811 -1.65835 671 ft 2 kts 92°
2026-05-05 17:20 53.86811 -1.65841 671 ft 0 kts 92°
2026-05-05 17:23 53.86811 -1.65817 671 ft 4 kts 96°
2026-05-05 17:24 53.86784 -1.65767 670 ft 7 kts 147°
2026-05-05 17:24 53.86747 -1.65694 669 ft 9 kts 110°
2026-05-05 17:24 53.86738 -1.65553 665 ft 15 kts 91°
2026-05-05 17:24 53.86677 -1.65428 661 ft 16 kts 179°
2026-05-05 17:25 53.86567 -1.65437 665 ft 14 kts 183°
2026-05-05 17:25 53.86503 -1.65444 668 ft 13 kts 183°
2026-05-05 17:25 53.86425 -1.65452 670 ft 0 kts 184°
2026-05-05 17:27 53.86424 -1.65452 670 ft 0 kts 184°
2026-05-05 17:27 53.86415 -1.65453 670 ft 5 kts 184°
2026-05-05 17:27 53.86340 -1.65458 672 ft 14 kts 180°
2026-05-05 17:28 53.86246 -1.65459 676 ft 11 kts 196°
2026-05-05 17:28 53.86253 -1.65545 679 ft 8 kts 327°
2026-05-05 17:28 53.86260 -1.65554 679 ft 0 kts 320°
2026-05-05 17:29 53.86275 -1.65575 679 ft 18 kts 319°
2026-05-05 17:29 53.86602 -1.66072 681 ft 106 kts 317°
2026-05-05 17:29 53.87310 -1.67221 781 ft 167 kts 315°
2026-05-05 17:30 53.88123 -1.68620 1641 ft 169 kts 319°
2026-05-05 17:30 53.88882 -1.70034 2695 ft 165 kts 317°
2026-05-05 17:30 53.89654 -1.71525 3356 ft 178 kts 314°
2026-05-05 17:30 53.90222 -1.73511 3909 ft 204 kts 286°
2026-05-05 17:31 53.90187 -1.76023 4482 ft 227 kts 264°
2026-05-05 17:31 53.89740 -1.78685 5000 ft 252 kts 248°
2026-05-05 17:31 53.88799 -1.81355 5634 ft 274 kts 233°
2026-05-05 17:31 53.87571 -1.83876 6384 ft 281 kts 230°
2026-05-05 17:32 53.86307 -1.86354 6851 ft 281 kts 230°
2026-05-05 17:32 53.85046 -1.88845 7021 ft 281 kts 232°
2026-05-05 17:32 53.84158 -1.91725 7020 ft 276 kts 261°
2026-05-05 17:32 53.84257 -1.94926 7024 ft 272 kts 290°
2026-05-05 17:33 53.85131 -1.97761 7030 ft 270 kts 303°
2026-05-05 17:33 53.86086 -2.00488 7025 ft 270 kts 297°
2026-05-05 17:33 53.86527 -2.03528 7012 ft 273 kts 275°
2026-05-05 17:33 53.86510 -2.06779 7017 ft 274 kts 269°
2026-05-05 17:34 53.86428 -2.09963 7022 ft 274 kts 270°
2026-05-05 17:34 53.86373 -2.13179 7027 ft 274 kts 271°
2026-05-05 17:34 53.86310 -2.16468 7217 ft 282 kts 264°
2026-05-05 17:34 53.85574 -2.19559 8084 ft 291 kts 233°
2026-05-05 17:35 53.84158 -2.21872 9274 ft 287 kts 223°
2026-05-05 17:35 53.82652 -2.24081 10264 ft 290 kts 223°
2026-05-05 17:35 53.81160 -2.26290 11183 ft 293 kts 224°
2026-05-05 17:35 53.79635 -2.28564 12098 ft 296 kts 224°
2026-05-05 17:36 53.78086 -2.30882 12994 ft 299 kts 224°
2026-05-05 17:36 53.76539 -2.33200 13861 ft 303 kts 224°
2026-05-05 17:36 53.74969 -2.35551 14706 ft 306 kts 224°
2026-05-05 17:36 53.73372 -2.37944 15572 ft 308 kts 224°
2026-05-05 17:37 53.71774 -2.40335 16422 ft 311 kts 224°
2026-05-05 17:37 53.70698 -2.41944 16979 ft 312 kts 224°
2026-05-05 17:37 53.68550 -2.45149 18047 ft 315 kts 224°
2026-05-05 17:37 53.66916 -2.47585 18828 ft 317 kts 224°
2026-05-05 17:38 53.65251 -2.50067 19558 ft 321 kts 224°
2026-05-05 17:38 53.63657 -2.52618 20275 ft 322 kts 231°
2026-05-05 17:38 53.62345 -2.55678 21002 ft 324 kts 242°
2026-05-05 17:38 53.61385 -2.59063 21636 ft 326 kts 248°
2026-05-05 17:39 53.60515 -2.62624 21974 ft 328 kts 249°
2026-05-05 17:39 53.59666 -2.66157 22017 ft 328 kts 248°
2026-05-05 17:39 53.58807 -2.69708 22020 ft 327 kts 249°
2026-05-05 17:39 53.58101 -2.73354 22020 ft 327 kts 257°
2026-05-05 17:40 53.57717 -2.77107 22023 ft 327 kts 264°
2026-05-05 17:40 53.57653 -2.80908 22023 ft 327 kts 272°
2026-05-05 17:40 53.57812 -2.84711 22023 ft 327 kts 274°
2026-05-05 17:40 53.58006 -2.88490 22024 ft 327 kts 274°
2026-05-05 17:41 53.58204 -2.92325 22023 ft 327 kts 274°
2026-05-05 17:41 53.58395 -2.96115 22023 ft 327 kts 274°
2026-05-05 17:41 53.58584 -2.99906 22025 ft 327 kts 274°
2026-05-05 17:41 53.58770 -3.03722 22023 ft 328 kts 274°
2026-05-05 17:42 53.58951 -3.07517 22025 ft 328 kts 274°
2026-05-05 17:42 53.59132 -3.11333 22025 ft 328 kts 274°
2026-05-05 17:42 53.59358 -3.15189 22027 ft 328 kts 277°
2026-05-05 17:42 53.59704 -3.19014 22025 ft 328 kts 279°
2026-05-05 17:43 53.60150 -3.22767 22026 ft 328 kts 281°
2026-05-05 17:43 53.60613 -3.26501 22024 ft 328 kts 281°
2026-05-05 17:43 53.61078 -3.30248 22023 ft 328 kts 281°
2026-05-05 17:43 53.61541 -3.33985 22027 ft 327 kts 281°
2026-05-05 17:44 53.61999 -3.37700 22026 ft 327 kts 281°
2026-05-05 17:44 53.62460 -3.41452 22030 ft 327 kts 281°
2026-05-05 17:44 53.62919 -3.45206 22046 ft 327 kts 281°
2026-05-05 17:44 53.63279 -3.48156 22031 ft 327 kts 281°
2026-05-05 17:45 53.63730 -3.51861 22029 ft 327 kts 281°
2026-05-05 17:45 53.64183 -3.55594 22029 ft 327 kts 281°
2026-05-05 17:45 53.64745 -3.59292 22021 ft 327 kts 288°
2026-05-05 17:45 53.65586 -3.62896 22024 ft 328 kts 295°
2026-05-05 17:46 53.66673 -3.66262 22026 ft 329 kts 301°
2026-05-05 17:46 53.67942 -3.69426 22026 ft 329 kts 303°
2026-05-05 17:46 53.69275 -3.72610 22022 ft 329 kts 303°
2026-05-05 17:46 53.70595 -3.75748 22024 ft 330 kts 303°
2026-05-05 17:47 53.71904 -3.78871 22020 ft 329 kts 303°
2026-05-05 17:47 53.73230 -3.82043 22023 ft 329 kts 303°
2026-05-05 17:47 53.74546 -3.85202 22022 ft 329 kts 303°
2026-05-05 17:47 53.75857 -3.88354 22024 ft 329 kts 303°
2026-05-05 17:48 53.77167 -3.91511 22025 ft 329 kts 303°
2026-05-05 17:48 53.78464 -3.94640 22023 ft 329 kts 303°
2026-05-05 17:48 53.79767 -3.97788 22027 ft 329 kts 303°
2026-05-05 17:48 53.81085 -4.00980 22026 ft 328 kts 303°
2026-05-05 17:49 53.82388 -4.04136 22025 ft 328 kts 303°
2026-05-05 17:49 53.83691 -4.07300 22022 ft 329 kts 303°
2026-05-05 17:49 53.84993 -4.10464 22022 ft 328 kts 303°
2026-05-05 17:49 53.86282 -4.13601 22022 ft 328 kts 303°
2026-05-05 17:50 53.87582 -4.16767 22025 ft 328 kts 303°
2026-05-05 17:50 53.88891 -4.19960 22024 ft 328 kts 303°
2026-05-05 17:50 53.90188 -4.23130 22032 ft 328 kts 303°
2026-05-05 17:50 53.91483 -4.26300 22021 ft 328 kts 303°
2026-05-05 17:51 53.92769 -4.29453 22021 ft 329 kts 303°
2026-05-05 17:51 53.94085 -4.32683 22027 ft 329 kts 303°
2026-05-05 17:51 53.95380 -4.35861 22030 ft 329 kts 303°
2026-05-05 17:51 53.96679 -4.39054 22032 ft 329 kts 303°
2026-05-05 17:52 53.97975 -4.42244 22023 ft 328 kts 303°
2026-05-05 17:52 53.99259 -4.45408 22020 ft 328 kts 303°
2026-05-05 17:52 54.00546 -4.48580 22023 ft 328 kts 304°
2026-05-05 17:52 54.01904 -4.51675 22021 ft 328 kts 308°
2026-05-05 17:53 54.03388 -4.54656 22028 ft 329 kts 311°
2026-05-05 17:53 54.04914 -4.57511 21972 ft 329 kts 311°
2026-05-05 17:53 54.06450 -4.60357 21722 ft 327 kts 311°
2026-05-05 17:53 54.07991 -4.63213 21478 ft 326 kts 311°
2026-05-05 17:54 54.09531 -4.66070 21244 ft 325 kts 310°
2026-05-05 17:54 54.11044 -4.68885 20951 ft 324 kts 310°
2026-05-05 17:54 54.12561 -4.71711 20593 ft 322 kts 310°
2026-05-05 17:54 54.14050 -4.74492 20216 ft 320 kts 310°
2026-05-05 17:55 54.15559 -4.77311 19849 ft 318 kts 310°
2026-05-05 17:55 54.17045 -4.80092 19447 ft 317 kts 310°
2026-05-05 17:55 54.18520 -4.82855 19056 ft 315 kts 310°
2026-05-05 17:55 54.19981 -4.85594 18667 ft 313 kts 310°
2026-05-05 17:56 54.21439 -4.88332 18277 ft 312 kts 310°
2026-05-05 17:56 54.22893 -4.91065 17910 ft 310 kts 311°
2026-05-05 17:56 54.24318 -4.93747 17534 ft 308 kts 311°
2026-05-05 17:56 54.25755 -4.96457 17134 ft 307 kts 311°
2026-05-05 17:57 54.27187 -4.99158 16744 ft 305 kts 311°
2026-05-05 17:57 54.28589 -5.01805 16363 ft 303 kts 311°
2026-05-05 17:57 54.30007 -5.04486 15975 ft 301 kts 311°
2026-05-05 17:57 54.31401 -5.07123 15600 ft 299 kts 311°
2026-05-05 17:58 54.32780 -5.09735 15221 ft 297 kts 311°
2026-05-05 17:58 54.34167 -5.12366 14842 ft 295 kts 311°
2026-05-05 17:58 54.35536 -5.14966 14469 ft 294 kts 311°
2026-05-05 17:58 54.36892 -5.17544 14092 ft 292 kts 311°
2026-05-05 17:59 54.38238 -5.20106 13725 ft 290 kts 311°
2026-05-05 17:59 54.39574 -5.22651 13354 ft 288 kts 311°
2026-05-05 17:59 54.40902 -5.25186 12984 ft 287 kts 311°
2026-05-05 17:59 54.42234 -5.27730 12613 ft 285 kts 312°
2026-05-05 18:00 54.43545 -5.30236 12253 ft 283 kts 312°
2026-05-05 18:00 54.44553 -5.32163 11971 ft 282 kts 312°
2026-05-05 18:00 54.45781 -5.34447 11635 ft 280 kts 314°
2026-05-05 18:00 54.47125 -5.36853 11281 ft 278 kts 314°
2026-05-05 18:01 54.48468 -5.39244 10921 ft 277 kts 314°
2026-05-05 18:01 54.49785 -5.41593 10566 ft 275 kts 314°
2026-05-05 18:01 54.51072 -5.43998 10207 ft 273 kts 308°
2026-05-05 18:01 54.52050 -5.46771 10056 ft 272 kts 295°
2026-05-05 18:02 54.52718 -5.49859 10053 ft 274 kts 290°
2026-05-05 18:02 54.53297 -5.52948 9958 ft 275 kts 289°
2026-05-05 18:02 54.53874 -5.56084 9624 ft 274 kts 289°
2026-05-05 18:02 54.54448 -5.59202 9290 ft 272 kts 289°
2026-05-05 18:03 54.55011 -5.62251 8964 ft 268 kts 289°
2026-05-05 18:03 54.55575 -5.65305 8684 ft 263 kts 289°
2026-05-05 18:03 54.56121 -5.68262 8379 ft 258 kts 289°
2026-05-05 18:03 54.56656 -5.71160 8137 ft 252 kts 289°
2026-05-05 18:04 54.57182 -5.74008 7840 ft 248 kts 289°
2026-05-05 18:04 54.57698 -5.76806 7580 ft 243 kts 289°
2026-05-05 18:04 54.58204 -5.79548 7323 ft 239 kts 289°
2026-05-05 18:04 54.58703 -5.82258 7067 ft 236 kts 289°
2026-05-05 18:05 54.59190 -5.84904 6809 ft 232 kts 289°
2026-05-05 18:05 54.59678 -5.87556 6548 ft 230 kts 289°
2026-05-05 18:05 54.60158 -5.90178 6297 ft 230 kts 289°
2026-05-05 18:05 54.60640 -5.92812 6042 ft 229 kts 289°
2026-05-05 18:06 54.61116 -5.95416 5791 ft 228 kts 290°
2026-05-05 18:06 54.61272 -5.96270 5708 ft 227 kts 290°
2026-05-05 18:06 54.62058 -6.00573 5288 ft 225 kts 290°
2026-05-05 18:06 54.62520 -6.03108 5039 ft 223 kts 290°
2026-05-05 18:07 54.62986 -6.05674 4784 ft 222 kts 290°
2026-05-05 18:07 54.63442 -6.08187 4534 ft 221 kts 290°
2026-05-05 18:07 54.63902 -6.10723 4281 ft 220 kts 290°
2026-05-05 18:07 54.64354 -6.13229 4043 ft 218 kts 290°
2026-05-05 18:08 54.64789 -6.15646 3978 ft 205 kts 290°
2026-05-05 18:08 54.65171 -6.17919 3959 ft 192 kts 282°
2026-05-05 18:08 54.65057 -6.20188 3960 ft 195 kts 251°
2026-05-05 18:08 54.64270 -6.22124 3974 ft 200 kts 220°
2026-05-05 18:09 54.63049 -6.23147 3807 ft 199 kts 189°
2026-05-05 18:09 54.61668 -6.23268 3510 ft 201 kts 179°
2026-05-05 18:09 54.60264 -6.23203 3241 ft 201 kts 178°
2026-05-05 18:09 54.58867 -6.23142 2988 ft 201 kts 179°
2026-05-05 18:10 54.57476 -6.23113 2737 ft 200 kts 180°
2026-05-05 18:10 54.56086 -6.23108 2515 ft 198 kts 181°
2026-05-05 18:10 54.54709 -6.23119 2488 ft 200 kts 181°
2026-05-05 18:10 54.53312 -6.23134 2483 ft 201 kts 181°
2026-05-05 18:11 54.51915 -6.23151 2480 ft 201 kts 181°
2026-05-05 18:11 54.50514 -6.23171 2480 ft 201 kts 181°
2026-05-05 18:11 54.49169 -6.23168 2463 ft 187 kts 174°
2026-05-05 18:11 54.47984 -6.22524 2449 ft 177 kts 142°
2026-05-05 18:12 54.47155 -6.21038 2472 ft 173 kts 113°
2026-05-05 18:12 54.46814 -6.19090 2482 ft 167 kts 86°
2026-05-05 18:12 54.46987 -6.17204 2545 ft 160 kts 63°
2026-05-05 18:12 54.47592 -6.15627 2517 ft 155 kts 40°
2026-05-05 18:13 54.48473 -6.14640 2482 ft 152 kts 19°
2026-05-05 18:13 54.49505 -6.14302 2483 ft 151 kts 359°
2026-05-05 18:13 54.50553 -6.14506 2483 ft 151 kts 349°
2026-05-05 18:13 54.51561 -6.14926 2481 ft 151 kts 345°
2026-05-05 18:14 54.52554 -6.15426 2481 ft 140 kts 344°
2026-05-05 18:14 54.53444 -6.15913 2446 ft 132 kts 342°
2026-05-05 18:14 54.54308 -6.16399 2283 ft 130 kts 342°
2026-05-05 18:14 54.55159 -6.16879 2102 ft 129 kts 342°
2026-05-05 18:15 54.56012 -6.17361 1930 ft 129 kts 343°
2026-05-05 18:15 54.56865 -6.17842 1759 ft 129 kts 343°
2026-05-05 18:15 54.57728 -6.18325 1589 ft 129 kts 341°
2026-05-05 18:15 54.58570 -6.18799 1414 ft 129 kts 341°
2026-05-05 18:16 54.59426 -6.19281 1240 ft 130 kts 343°
2026-05-05 18:16 54.60289 -6.19765 1068 ft 129 kts 342°
2026-05-05 18:16 54.61137 -6.20244 906 ft 130 kts 341°
2026-05-05 18:16 54.61997 -6.20727 725 ft 130 kts 340°
2026-05-05 18:17 54.62859 -6.21220 555 ft 130 kts 342°
2026-05-05 18:17 54.63720 -6.21708 425 ft 131 kts 342°
2026-05-05 18:17 54.64582 -6.22178 256 ft 128 kts 344°
2026-05-05 18:17 54.65228 -6.22549 229 ft 58 kts 342°
2026-05-05 18:18 54.65482 -6.22690 216 ft 25 kts 343°
2026-05-05 18:18 54.65606 -6.22760 211 ft 15 kts 340°
2026-05-05 18:18 54.65713 -6.22770 209 ft 10 kts 49°
2026-05-05 18:18 54.65733 -6.22703 210 ft 2 kts 69°
2026-05-05 18:19 54.65742 -6.22658 211 ft 5 kts 75°
2026-05-05 18:19 54.65752 -6.22576 212 ft 8 kts 80°
2026-05-05 18:19 54.65761 -6.22467 214 ft 9 kts 83°
2026-05-05 18:19 54.65768 -6.22353 216 ft 9 kts 84°
2026-05-05 18:20 54.65776 -6.22239 220 ft 9 kts 82°
2026-05-05 18:20 54.65784 -6.22161 223 ft 10 kts 78°
2026-05-05 18:20 54.65829 -6.21966 227 ft 15 kts 64°
2026-05-05 18:20 54.65873 -6.21804 232 ft 14 kts 66°
2026-05-05 18:21 54.65912 -6.21658 239 ft 11 kts 66°
2026-05-05 18:21 54.65943 -6.21540 242 ft 10 kts 65°
2026-05-05 18:21 54.65976 -6.21417 245 ft 10 kts 65°
2026-05-05 18:21 54.66004 -6.21311 249 ft 9 kts 65°
2026-05-05 18:22 54.66047 -6.21218 250 ft 10 kts 17°
2026-05-05 18:22 54.66124 -6.21260 247 ft 11 kts 339°
2026-05-05 18:22 54.66162 -6.21287 246 ft 5 kts 337°
2026-05-05 18:22 54.66198 -6.21313 245 ft 0 kts 337°
2026-05-05 18:23 54.66199 -6.21317 245 ft 0 kts 306°
2026-05-05 18:23 54.66195 -6.21342 244 ft 4 kts 248°
2026-05-05 18:23 54.66182 -6.21399 243 ft 2 kts 246°
2026-05-05 18:23 54.66179 -6.21411 243 ft 0 kts 245°